Weather History for Hattiesburg, MS

Change the Weather History Date:

Wednesday, March 6, 2013

  Actual Average Record
Temperature  
Mean Temperature 49 °F 57 °F  
Max Temperature 60 °F 69 °F 85 °F (1956)
Min Temperature 37 °F 45 °F 24 °F (1960)
Degree Days  
Heating Degree Days 16 9  
Month to date heating degree days 109 56  
Since 1 July heating degree days 1502 1734  
Cooling Degree Days 0 1  
Month to date cooling degree days 0 6  
Year to date cooling degree days 28 21  
Moisture  
Dew Point 27 °F    
Average Humidity 49    
Maximum Humidity 71    
Minimum Humidity 26    
Precipitation  
Precipitation 0.00 in 0.21 in 3.89 in (1948)
Month to date precipitation T 1.16  
Year to date precipitation 18.43 12.29  
Sea Level Pressure  
Sea Level Pressure 30.27 in    
Wind  
Wind Speed 8 mph (NNW)    
Max Wind Speed 18 mph    
Max Gust Speed 25 mph    
Visibility 10 miles    
Events      
T = Trace of Precipitation, MM = Missing Value Source: NWS Daily Summary

Daily Weather History Graph

Daily Weather History Graph

Search for Another Location

Airport:

Trip Planner

Search our weather history database for the weather conditions in past years. The results will help you decide how hot, cold, wet, or windy it might be!

Date:

Astronomy

Mar. 06, 2013 Rise Set
Actual Time 6:17 AM CST 5:59 PM CST
Civil Twilight 5:53 AM CST 6:23 PM CST
Nautical Twilight 5:25 AM CST 6:51 PM CST
Astronomical Twilight 4:57 AM CST 7:19 PM CST
Moon 2:10 AM CST (3/6) 12:56 PM CST (3/6)
Length of Visible Light 12h 29m
Length of Day
11h 41m
Waning Crescent, 29% of the Moon is Illuminated
Mar 6
Waning Crescent
Mar 11
New
Mar 19
First Quarter
Mar 27
Full
Apr 2
Last Quarter

Hourly Weather History & Observations

Time (CST) Temp. Windchill Dew Point Humidity Pressure Visibility Wind Dir Wind Speed Gust Speed Precip Events Conditions
12:53 AM 46.0 °F 41.9 °F 35.1 °F 66% 30.21 in 10.0 mi NW 8.1 mph - N/A   Clear
1:53 AM 43.0 °F 40.3 °F 30.9 °F 62% 30.22 in 10.0 mi NW 4.6 mph - N/A   Clear
2:53 AM 42.1 °F 38.4 °F 28.0 °F 58% 30.21 in 10.0 mi NW 5.8 mph - N/A   Clear
3:53 AM 41.0 °F 39.0 °F 26.1 °F 55% 30.22 in 10.0 mi West 3.5 mph - N/A   Clear
4:53 AM 39.0 °F 36.8 °F 27.0 °F 62% 30.25 in 10.0 mi NW 3.5 mph - N/A   Clear
5:53 AM 37.9 °F 35.5 °F 26.1 °F 62% 30.27 in 10.0 mi NW 3.5 mph - N/A   Clear
6:53 AM 37.9 °F 34.4 °F 26.1 °F 62% 30.29 in 10.0 mi NW 4.6 mph - N/A   Clear
7:53 AM 43.0 °F 38.2 °F 27.0 °F 53% 30.32 in 10.0 mi NNW 8.1 mph - N/A   Clear
8:53 AM 46.0 °F 39.9 °F 26.1 °F 46% 30.33 in 10.0 mi North 13.8 mph - N/A   Clear
9:53 AM 48.9 °F - 25.0 °F 39% 30.32 in 10.0 mi NNW 10.4 mph - N/A   Clear
10:53 AM 51.1 °F - 25.0 °F 36% 30.31 in 10.0 mi North 11.5 mph 19.6 mph N/A   Clear
11:53 AM 54.0 °F - 25.0 °F 33% 30.30 in 10.0 mi NNW 10.4 mph 25.3 mph N/A   Clear
12:53 PM 57.0 °F - 26.1 °F 30% 30.26 in 10.0 mi NW 15.0 mph 20.7 mph N/A   Clear
1:53 PM 57.9 °F - 25.0 °F 28% 30.24 in 10.0 mi North 9.2 mph 23.0 mph N/A   Clear
2:53 PM 59.0 °F - 25.0 °F 27% 30.22 in 10.0 mi North 13.8 mph 20.7 mph N/A   Clear
3:53 PM 59.0 °F - 25.0 °F 27% 30.22 in 10.0 mi North 10.4 mph 18.4 mph N/A   Clear
4:53 PM 57.0 °F - 27.0 °F 32% 30.23 in 10.0 mi North 6.9 mph - N/A   Clear
5:53 PM 53.1 °F - 27.0 °F 37% 30.25 in 10.0 mi NNW 6.9 mph - N/A   Clear
6:53 PM 50.0 °F - 28.0 °F 43% 30.26 in 10.0 mi NNW 4.6 mph - N/A   Clear
7:53 PM 46.9 °F - 28.9 °F 50% 30.28 in 10.0 mi NNW 5.8 mph - N/A   Clear
8:53 PM 46.9 °F - 28.9 °F 50% 30.30 in 10.0 mi NNW 5.8 mph - N/A   Clear
9:53 PM 44.1 °F 40.8 °F 28.9 °F 55% 30.31 in 10.0 mi NNW 5.8 mph - N/A   Clear
10:53 PM 43.0 °F 40.3 °F 28.9 °F 58% 30.30 in 10.0 mi North 4.6 mph - N/A   Clear
11:53 PM 41.0 °F 38.0 °F 28.9 °F 62% 30.30 in 10.0 mi NNW 4.6 mph - N/A   Clear